Location: 10033 Water Well
(34.0865°N, 106.8959°W)
Time: 15:48:14
(UTC+00:00)

IRAS Rocket - Pass Details

Date: 13 January 2026
Orbit: 846 x 875 km, 100.1° (Epoch: 11 February)

Event Time Altitude Azimuth Distance (km) Brightness Sun altitude
Rises 02:11:29 0° 164° (SSE) 3,393 7.3 -22.9°
Reaches altitude 10° 02:13:49 10° 164° (SSE) 2,463 6.6 -23.4°
Maximum altitude 02:19:17 90° 91° (E) 856 4.1 -24.5°
Drops below altitude 10° 02:24:50 10° 346° (NNW) 2,493 6.7 -25.6°
Sets 02:27:13 0° 346° (NNW) 3,438 7.4 -26.1°
